Kahului, HI

1:30 PM HST on February 24, 2017 (GMT -1000)
Kahului

Weather History for PHOG - February, 2014

Change the Weather History Date:

Monday, February 24, 2014

  Actual Average Record
Temperature  
Mean Temperature 74 °F 72 °F  
Max Temperature 82 °F 81 °F 88 °F (1951)
Min Temperature 65 °F 63 °F 57 °F (1973)
Degree Days  
Heating Degree Days 0 0  
Month to date heating degree days 0 0  
Since 1 July heating degree days 0 0  
Cooling Degree Days 9 7  
Month to date cooling degree days 251 154  
Year to date cooling degree days 486 371  
Growing Degree Days 26 (Base 50)    
Moisture  
Dew Point 65 °F    
Average Humidity 76    
Maximum Humidity 93    
Minimum Humidity 58    
Precipitation  
Precipitation 0.07 in 0.06 in 4.30 in (1972)
Month to date precipitation 2.51 1.49  
Year to date precipitation 6.56 4.36  
Snow  
Snow 0.00 in - - ()
Month to date snowfall 0.0  
Since 1 July snowfall 0.0  
Snow Depth 0.00 in    
Sea Level Pressure  
Sea Level Pressure 29.97 in    
Wind  
Wind Speed 11 mph (NNE)    
Max Wind Speed 15 mph    
Max Gust Speed 20 mph    
Visibility 10 miles    
Events Rain    
T = Trace of Precipitation, MM = Missing Value Source: NWS Daily Summary

Daily Weather History Graph

Daily Weather History Graph

Search for Another Location

Airport or City:

Trip Planner

Search our weather history database for the weather conditions in past years. The results will help you decide how hot, cold, wet, or windy it might be!

Date:

Astronomy

Feb. 24, 2014 Rise Set
Actual Time 6:49 AM HST 6:28 PM HST
Civil Twilight 6:27 AM HST 6:50 PM HST
Nautical Twilight 6:01 AM HST 7:16 PM HST
Astronomical Twilight 5:35 AM HST 7:42 PM HST
Moon 2:36 AM HST 2:02 PM HST
Length of Visible Light 12h 23m
Length of Day
11h 38m
Waning Crescent, 26% of the Moon is Illuminated
Feb 24
Waning Crescent
Feb 28
New
Mar 8
First Quarter
Mar 16
Full
Mar 23
Last Quarter

Hourly Weather History & Observations

Time (HST) Temp. Heat Index Dew Point Humidity Pressure Visibility Wind Dir Wind Speed Gust Speed Precip Events Conditions
12:54 AM 71.1 °F - 68.0 °F 90% 30.00 in 10.0 mi East 6.9 mph - 0.07 in   Partly Cloudy
1:54 AM 71.1 °F - 69.1 °F 93% 29.98 in 10.0 mi East 8.1 mph - 0.00 in Rain Light Rain
2:11 AM 71.6 °F - 69.8 °F 94% 29.96 in 10.0 mi East 6.9 mph - 0.00 in   Mostly Cloudy
2:54 AM 71.1 °F - 69.1 °F 93% 29.96 in 10.0 mi East 5.8 mph - 0.00 in   Mostly Cloudy
3:09 AM 71.6 °F - 69.8 °F 94% 29.94 in 10.0 mi NE 5.8 mph - N/A   Partly Cloudy
3:32 AM 73.4 °F - 69.8 °F 88% 29.94 in 10.0 mi NNE 10.4 mph - N/A   Mostly Cloudy
3:54 AM 73.0 °F - 69.1 °F 87% 29.95 in 10.0 mi North 13.8 mph - N/A   Mostly Cloudy
4:13 AM 73.4 °F - 69.8 °F 88% 29.94 in 10.0 mi North 11.5 mph - N/A   Mostly Cloudy
4:54 AM 73.0 °F - 68.0 °F 84% 29.96 in 10.0 mi North 11.5 mph - N/A   Mostly Cloudy
5:54 AM 73.0 °F - 66.9 °F 81% 29.96 in 10.0 mi NNE 10.4 mph - N/A   Mostly Cloudy
6:54 AM 73.9 °F - 66.9 °F 79% 29.98 in 10.0 mi NNE 11.5 mph - N/A   Mostly Cloudy
7:54 AM 75.0 °F - 66.0 °F 73% 30.00 in 10.0 mi North 11.5 mph - N/A   Mostly Cloudy
8:54 AM 77.0 °F - 66.9 °F 71% 30.01 in 10.0 mi North 12.7 mph - N/A   Scattered Clouds
9:54 AM 79.0 °F - 66.0 °F 64% 30.03 in 10.0 mi North 12.7 mph - N/A   Scattered Clouds
10:54 AM 80.1 °F 82.3 °F 66.9 °F 64% 30.02 in 10.0 mi North 11.5 mph - N/A   Scattered Clouds
11:54 AM 81.0 °F 83.0 °F 66.0 °F 60% 30.00 in 10.0 mi North 13.8 mph - N/A   Scattered Clouds
12:54 PM 80.1 °F 81.9 °F 64.9 °F 60% 29.97 in 10.0 mi North 13.8 mph - N/A   Scattered Clouds
1:54 PM 80.1 °F 81.7 °F 64.0 °F 58% 29.95 in 10.0 mi North 13.8 mph - N/A   Scattered Clouds
2:54 PM 79.0 °F - 63.0 °F 58% 29.93 in 10.0 mi North 12.7 mph - N/A   Scattered Clouds
3:54 PM 79.0 °F - 63.0 °F 58% 29.93 in 10.0 mi North 12.7 mph - N/A   Scattered Clouds
4:54 PM 78.1 °F - 63.0 °F 60% 29.93 in 10.0 mi North 12.7 mph - N/A   Scattered Clouds
5:54 PM 75.9 °F - 63.0 °F 64% 29.94 in 10.0 mi North 11.5 mph - N/A   Scattered Clouds
6:54 PM 75.0 °F - 61.0 °F 62% 29.94 in 10.0 mi North 11.5 mph - N/A   Mostly Cloudy
7:54 PM 73.9 °F - 61.0 °F 64% 29.95 in 10.0 mi North 11.5 mph - N/A   Mostly Cloudy
8:54 PM 73.9 °F - 60.1 °F 62% 29.97 in 10.0 mi NNE 9.2 mph - N/A   Mostly Cloudy
9:54 PM 73.9 °F - 61.0 °F 64% 29.97 in 10.0 mi North 8.1 mph - N/A   Scattered Clouds
10:54 PM 73.0 °F - 60.1 °F 64% 29.96 in 10.0 mi North 6.9 mph - N/A   Partly Cloudy
11:54 PM 64.9 °F - 61.0 °F 87% 29.95 in 10.0 mi Calm Calm - N/A   Clear